CW2404 Weather Reports


Display with metric or nautical units.
time (UTC)temp
F
wind
direction
speed
MPH
gust
MPH
rain 1hr
in
rain 24hr
in
rain mn
in
humidity
%
barometer
mb
20260505073025 51 204 12.0 0.0 0.00 0.00 0.00 80 1007.2
20260505072458 52 223 12.0 0.0 0.00 0.00 0.00 80 1007.3
20260505071932 52 215 12.0 0.0 0.00 0.00 0.00 80 1007.3
20260505071515 52 218 11.0 0.0 0.00 0.00 0.00 80 1007.3
20260505071008 52 230 12.0 0.0 0.00 0.00 0.00 79 1007.3
20260505070529 52 213 13.0 0.0 0.00 0.00 0.00 78 1007.3
20260505070034 52 223 13.0 0.0 0.00 0.00 0.00 78 1007.3
20260505065447 52 217 12.0 0.0 0.00 0.00 0.00 79 1007.3
20260505065024 52 209 11.0 0.0 0.00 0.00 0.00 79 1007.3
20260505064521 52 210 11.0 0.0 0.00 0.00 0.00 79 1007.3
20260505063952 52 209 12.0 0.0 0.00 0.00 0.00 78 1007.3
20260505063525 52 200 13.0 0.0 0.00 0.00 0.00 78 1007.3
20260505062931 52 204 13.0 0.0 0.00 0.00 0.00 78 1007.3
20260505062436 52 209 13.0 0.0 0.00 0.00 0.00 78 1007.3
20260505061945 52 206 13.0 0.0 0.00 0.00 0.00 77 1007.3
20260505061524 52 207 14.0 0.0 0.00 0.00 0.00 77 1007.3
20260505060955 52 218 14.0 0.0 0.00 0.00 0.00 76 1007.4
20260505060516 52 208 14.0 0.0 0.00 0.00 0.00 76 1007.4
20260505055950 52 211 14.0 0.0 0.00 0.00 0.00 76 1007.4
20260505055437 52 203 15.0 0.0 0.00 0.00 0.00 76 1007.4
20260505054945 52 227 16.0 0.0 0.00 0.00 0.00 75 1007.4
20260505054433 53 225 16.0 0.0 0.00 0.00 0.00 75 1007.4
20260505054003 53 211 15.0 0.0 0.00 0.00 0.00 75 1007.3
20260505053433 53 212 14.0 0.0 0.00 0.00 0.00 74 1007.3
20260505052939 53 235 14.0 0.0 0.00 0.00 0.00 75 1007.3
20260505052449 53 216 14.0 0.0 0.00 0.00 0.00 74 1007.4
20260505051936 53 234 14.0 0.0 0.00 0.00 0.00 74 1007.4
20260505051437 53 223 13.0 0.0 0.00 0.00 0.00 74 1007.4
20260505050951 53 225 15.0 0.0 0.00 0.00 0.00 74 1007.7
20260505050442 53 214 17.0 0.0 0.00 0.00 0.00 74 1007.7
20260505041446 54 236 20.0 0.0 0.00 0.00 0.00 71 1007.4
20260505040944 54 228 20.0 0.0 0.00 0.00 0.00 71 1007.3
20260505040451 54 224 18.0 0.0 0.00 0.00 0.00 71 1007.3
20260505035936 54 220 19.0 0.0 0.00 0.00 0.00 71 1007.3
20260505035516 54 213 19.0 0.0 0.00 0.00 0.00 70 1007.2
20260505034951 54 216 19.0 0.0 0.00 0.00 0.00 70 1007.2
20260505034531 54 212 20.0 0.0 0.00 0.00 0.00 70 1007.2
20260505033953 54 200 20.0 0.0 0.00 0.00 0.00 69 1007.2
20260505033520 54 221 19.0 0.0 0.00 0.00 0.00 70 1007.2
20260505033004 54 213 19.0 0.0 0.00 0.00 0.00 70 1007.2
20260505032013 54 223 20.0 0.0 0.00 0.00 0.00 69 1007.3
20260505031457 54 221 20.0 0.0 0.00 0.00 0.00 69 1007.3
20260505030934 54 206 20.0 0.0 0.00 0.00 0.00 69 1007.4
20260505030510 54 237 21.0 0.0 0.00 0.00 0.00 70 1007.4
20260505025931 54 224 18.0 0.0 0.00 0.00 0.00 69 1007.3
20260505025516 54 211 14.0 0.0 0.00 0.00 0.00 69 1007.5
20260505024958 55 296 13.0 0.0 0.00 0.00 0.00 69 1007.5
20260505024537 55 260 13.0 0.0 0.00 0.00 0.00 68 1007.5
20260505023955 55 226 13.0 0.0 0.00 0.00 0.00 67 1007.4
20260505023438 55 253 15.0 0.0 0.00 0.00 0.00 67 1007.4
20260505023014 55 220 15.0 0.0 0.00 0.00 0.00 67 1007.4
20260505022011 55 237 16.0 0.0 0.00 0.00 0.00 65 1007.5
20260505021442 56 223 18.0 0.0 0.00 0.00 0.00 64 1007.5
20260505021054 55 203 18.0 0.0 0.00 0.00 0.00 66 1007.4
20260505020505 55 232 19.0 0.0 0.00 0.00 0.00 64 1007.4
20260505015945 56 219 18.0 0.0 0.00 0.00 0.00 64 1007.4
20260505015517 56 225 19.0 0.0 0.00 0.00 0.00 64 1007.3
20260505014958 56 212 19.0 0.0 0.00 0.00 0.00 63 1007.3
20260505014523 56 205 19.0 0.0 0.00 0.00 0.00 62 1007.3
20260505014003 56 196 19.0 0.0 0.00 0.00 0.00 62 1007.1
20260505013436 56 221 17.0 0.0 0.00 0.00 0.00 62 1007.1
20260505013017 56 204 15.0 0.0 0.00 0.00 0.00 62 1007.1
20260505012518 56 221 15.0 0.0 0.00 0.00 0.00 60 1006.9
20260505011959 56 229 14.0 0.0 0.00 0.00 0.00 60 1006.9
20260505011445 57 259 14.0 0.0 0.00 0.00 0.00 61 1006.9
20260505011033 57 222 15.0 0.0 0.00 0.00 0.00 59 1006.7
20260505010502 57 219 15.0 0.0 0.00 0.00 0.00 59 1006.7
20260505005938 57 228 17.0 0.0 0.00 0.00 0.00 58 1006.7
20260505005504 57 215 12.0 0.0 0.00 0.00 0.00 57 1006.4
20260505005025 57 247 5.0 0.0 0.00 0.00 0.00 57 1006.4
20260505004527 57 105 0.0 0.0 0.00 0.00 0.00 62 1006.4
20260505004005 58 105 0.0 0.0 0.00 0.00 0.00 63 1006.0
20260505003453 58 105 0.0 0.0 0.00 0.00 0.00 61 1006.0
20260505002953 58 105 0.0 0.0 0.00 0.00 0.00 60 1006.0
20260505002517 58 105 0.0 0.0 0.00 0.00 0.00 58 1005.6
20260505001451 59 104 0.0 0.0 0.00 0.00 0.00 57 1005.6
20260505000943 59 104 0.0 0.0 0.00 0.00 0.00 57 1005.4
20260505000530 59 105 0.0 0.0 0.00 0.00 0.00 57 1005.4
20260505000002 60 104 0.0 0.0 0.00 0.00 0.00 56 1005.4
20260504235447 60 105 0.0 0.0 0.00 0.00 0.00 54 1005.1
20260504235027 60 105 0.0 0.0 0.00 0.00 0.00 55 1005.1
20260504234510 60 105 0.0 0.0 0.00 0.00 0.00 58 1005.1
20260504233947 61 104 0.0 0.0 0.00 0.00 0.00 56 1004.9
20260504233520 61 105 0.0 0.0 0.00 0.00 0.00 55 1004.9
20260504232944 61 105 0.0 0.0 0.00 0.00 0.00 55 1004.9
20260504232508 62 104 0.0 0.0 0.00 0.00 0.00 52 1004.6
20260504231945 62 105 0.0 0.0 0.00 0.00 0.00 51 1004.6
20260504231525 62 105 0.0 0.0 0.00 0.00 0.00 54 1004.6
20260504231009 62 104 0.0 0.0 0.00 0.00 0.00 53 1004.2
20260504230433 62 105 0.0 0.0 0.00 0.00 0.00 53 1004.2
20260504230046 62 105 0.0 0.0 0.00 0.00 0.00 53 1004.2
20260504225513 63 104 0.0 0.0 0.00 0.00 0.00 52 1004.0
20260504224937 63 104 0.0 0.0 0.00 0.00 0.00 52 1004.0
20260504224531 63 105 0.0 0.0 0.00 0.00 0.00 51 1004.0
20260504224025 63 105 0.0 0.0 0.00 0.00 0.00 53 1003.8
20260504223503 62 104 0.0 0.0 0.00 0.00 0.00 55 1003.8
20260504222933 63 104 0.0 0.0 0.00 0.00 0.00 54 1003.8
20260504222527 63 105 0.0 0.0 0.00 0.00 0.00 52 1003.7
20260504222006 63 104 0.0 0.0 0.00 0.00 0.00 51 1003.7
20260504221527 63 104 0.0 0.0 0.00 0.00 0.00 50 1003.7
20260504220956 64 105 0.0 0.0 0.00 0.00 0.00 50 1003.6
20260504220002 63 104 0.0 0.0 0.00 0.00 0.00 49 1003.6
20260504215440 63 103 0.0 0.0 0.00 0.00 0.00 52 1003.6
20260504215019 63 104 0.0 0.0 0.00 0.00 0.00 51 1003.6
20260504214449 63 104 0.0 0.0 0.00 0.00 0.00 48 1003.6
20260504214015 64 104 0.0 0.0 0.00 0.00 0.00 48 1003.6
20260504213440 64 104 0.0 0.0 0.00 0.00 0.00 47 1003.6
20260504213013 64 104 0.0 0.0 0.00 0.00 0.00 50 1003.6
20260504212439 64 103 0.0 0.0 0.00 0.00 0.00 47 1003.6
20260504212011 64 104 0.0 0.0 0.00 0.00 0.00 47 1003.6
20260504211439 65 103 14.0 0.0 0.00 0.00 0.00 46 1003.6
20260504211028 64 216 19.0 0.0 0.00 0.00 0.00 41 1003.6
20260504210502 64 230 20.0 0.0 0.00 0.00 0.00 41 1003.6
20260504210023 64 224 18.0 0.0 0.00 0.00 0.00 37 1003.6
20260504205517 64 219 15.0 0.0 0.00 0.00 0.00 41 1003.6
20260504205031 65 235 14.0 0.0 0.00 0.00 0.00 42 1003.6
20260504204451 65 233 17.0 0.0 0.00 0.00 0.00 36 1003.6
20260504203943 64 237 20.0 0.0 0.00 0.00 0.00 43 1003.6
20260504203524 65 223 20.0 0.0 0.00 0.00 0.00 38 1003.6
20260504203011 64 225 20.0 0.0 0.00 0.00 0.00 38 1003.6
20260504202448 64 222 20.0 0.0 0.00 0.00 0.00 39 1003.7
20260504202045 65 234 19.0 0.0 0.00 0.00 0.00 39 1003.7
20260504201509 66 223 20.0 0.0 0.00 0.00 0.00 33 1003.7
20260504201030 66 247 20.0 0.0 0.00 0.00 0.00 35 1003.8
20260504200507 65 231 20.0 0.0 0.00 0.00 0.00 36 1003.8
20260504195952 65 259 18.0 0.0 0.00 0.00 0.00 39 1003.8
20260504195526 66 226 17.0 0.0 0.00 0.00 0.00 33 1003.8
20260504194935 65 237 17.0 0.0 0.00 0.00 0.00 33 1003.8
20260504194457 64 251 16.0 0.0 0.00 0.00 0.00 36 1003.8
20260504193939 65 236 17.0 0.0 0.00 0.00 0.00 39 1003.6
20260504193528 65 337 18.0 0.0 0.00 0.00 0.00 36 1003.6
20260504192959 64 231 17.0 0.0 0.00 0.00 0.00 39 1003.6
20260504192532 64 230 18.0 0.0 0.00 0.00 0.00 37 1003.8
20260504192004 65 244 18.0 0.0 0.00 0.00 0.00 38 1003.8
20260504191527 65 218 19.0 0.0 0.00 0.00 0.00 34 1003.8
20260504190453 64 231 21.0 0.0 0.00 0.00 0.00 36 1003.9
20260504185931 65 185 15.0 0.0 0.00 0.00 0.00 35 1003.9
20260504185527 65 255 7.0 0.0 0.00 0.00 0.00 38 1004.0
20260504184947 65 103 0.0 0.0 0.00 0.00 0.00 36 1004.0
20260504184431 65 104 0.0 0.0 0.00 0.00 0.00 38 1004.0
20260504184010 64 104 0.0 0.0 0.00 0.00 0.00 34 1004.1
20260504183454 63 104 0.0 0.0 0.00 0.00 0.00 43 1004.1